FW4699 Weather Reports


time (UTC)temp
F
wind
direction
speed
knots
gust
knots
rain 1hr
in
rain 24hr
in
rain mn
in
humidity
%
barometer
mb
20260507132809 63 189 5.2 7.0 0.00 0.00 0.00 47 1014.9
20260507132610 63 141 7.0 7.0 0.00 0.00 0.00 48 1014.9
20260507132410 63 180 5.2 7.8 0.00 0.00 0.00 48 1014.9
20260507132210 63 174 7.8 7.8 0.00 0.00 0.00 47 1014.9
20260507132016 63 177 5.2 6.1 0.00 0.00 0.00 47 1014.9
20260507131810 63 180 4.3 4.3 0.00 0.00 0.00 48 1014.9
20260507131410 63 167 5.2 7.8 0.00 0.00 0.00 48 1014.9
20260507131210 63 177 5.2 7.0 0.00 0.00 0.00 48 1014.9
20260507131016 63 164 4.3 6.1 0.00 0.00 0.00 48 1014.9
20260507130810 63 172 5.2 7.0 0.00 0.00 0.00 47 1014.9
20260507130611 63 172 4.3 6.1 0.00 0.00 0.00 49 1014.6
20260507130410 63 182 5.2 7.0 0.00 0.00 0.00 47 1014.9
20260507130210 63 175 5.2 7.0 0.00 0.00 0.00 47 1014.9
20260507125809 63 174 6.1 7.0 0.00 0.00 0.00 47 1014.9
20260507125610 63 178 5.2 7.0 0.00 0.00 0.00 48 1014.9
20260507125410 63 173 5.2 5.2 0.00 0.00 0.00 47 1014.9
20260507125210 63 183 4.3 6.1 0.00 0.00 0.00 47 1014.9
20260507125017 63 179 5.2 5.2 0.00 0.00 0.00 47 1014.9
20260507124810 63 172 3.5 4.3 0.00 0.00 0.00 47 1014.9
20260507124611 63 180 3.5 7.0 0.00 0.00 0.00 46 1014.9
20260507124410 63 168 5.2 7.0 0.00 0.00 0.00 46 1014.9
20260507124210 63 174 5.2 7.0 0.00 0.00 0.00 46 1014.9
20260507124017 64 178 6.1 7.8 0.00 0.00 0.00 45 1014.9
20260507123610 64 160 4.3 5.2 0.00 0.00 0.00 46 1014.9
20260507123410 64 178 5.2 9.6 0.00 0.00 0.00 45 1014.9
20260507123210 64 162 7.8 7.8 0.00 0.00 0.00 45 1014.9
20260507123025 64 154 6.1 7.8 0.00 0.00 0.00 44 1014.9
20260507122810 64 162 5.2 7.0 0.00 0.00 0.00 44 1015.2
20260507122611 64 173 4.3 6.1 0.00 0.00 0.00 43 1014.9
20260507122414 64 177 5.2 6.1 0.00 0.00 0.00 43 1014.9
20260507122210 64 178 5.2 7.0 0.00 0.00 0.00 43 1014.9
20260507122016 65 174 5.2 6.1 0.00 0.00 0.00 44 1014.9
20260507121809 65 174 6.1 7.0 0.00 0.00 0.00 44 1014.9
20260507121610 65 163 6.1 7.0 0.00 0.00 0.00 44 1014.9
20260507121410 65 163 3.5 7.0 0.00 0.00 0.00 45 1014.9
20260507121210 66 177 5.2 7.0 0.00 0.00 0.00 44 1014.9
20260507121016 66 153 5.2 7.8 0.00 0.00 0.00 45 1014.9
20260507120811 66 171 3.5 7.0 0.00 0.00 0.00 45 1014.9
20260507120610 66 180 6.1 7.0 0.00 0.00 0.00 44 1014.9
20260507120210 66 171 4.3 7.0 0.00 0.00 0.00 43 1014.9
20260507115810 66 180 4.3 7.0 0.00 0.00 0.00 44 1014.9
20260507115610 66 182 4.3 7.0 0.00 0.00 0.00 43 1014.9
20260507115409 67 158 5.2 7.8 0.00 0.00 0.00 45 1014.9
20260507115211 67 147 5.2 8.7 0.00 0.00 0.00 45 1015.2
20260507115016 67 133 7.0 9.6 0.00 0.00 0.00 46 1014.9
20260507114810 67 143 7.0 7.8 0.00 0.00 0.00 45 1014.9
20260507114610 67 135 7.0 8.7 0.00 0.00 0.00 44 1015.2
20260507114410 67 140 7.8 7.8 0.00 0.00 0.00 47 1015.2
20260507114210 67 179 5.2 9.6 0.00 0.00 0.00 46 1014.9
20260507114016 67 156 5.2 9.6 0.00 0.00 0.00 46 1014.9
20260507113809 67 125 7.8 10.4 0.00 0.00 0.00 45 1014.9
20260507113610 68 144 7.0 7.8 0.00 0.00 0.00 44 1014.9
20260507113410 68 151 5.2 8.7 0.00 0.00 0.00 44 1015.2
20260507113210 67 167 5.2 7.8 0.00 0.00 0.00 46 1015.2
20260507113024 67 150 7.0 7.8 0.00 0.00 0.00 46 1015.2
20260507112810 67 169 2.6 7.0 0.00 0.00 0.00 46 1014.9
20260507112609 67 145 7.0 8.7 0.00 0.00 0.00 46 1015.2
20260507112409 67 148 7.0 7.8 0.00 0.00 0.00 45 1015.2
20260507112210 67 150 6.1 9.6 0.00 0.00 0.00 44 1015.2
20260507112016 66 149 6.1 7.8 0.00 0.00 0.00 47 1015.2
20260507111810 66 168 3.5 9.6 0.00 0.00 0.00 47 1015.2
20260507111610 66 157 3.5 5.2 0.00 0.00 0.00 48 1015.2
20260507111210 66 150 6.1 7.0 0.00 0.00 0.00 46 1015.2
20260507111016 65 168 5.2 7.8 0.00 0.00 0.00 46 1015.2
20260507110810 65 162 6.1 7.0 0.00 0.00 0.00 48 1015.2
20260507110409 65 160 5.2 7.0 0.00 0.00 0.00 47 1015.2
20260507110210 65 167 4.3 7.0 0.00 0.00 0.00 47 1015.2
20260507110036 66 151 7.0 9.6 0.00 0.00 0.00 47 1015.2
20260507105809 66 160 5.2 6.1 0.00 0.00 0.00 47 1015.2
20260507105609 66 163 5.2 6.1 0.00 0.00 0.00 48 1015.6
20260507105410 66 178 3.5 7.0 0.00 0.00 0.00 48 1015.2
20260507105210 66 171 3.5 5.2 0.00 0.00 0.00 46 1015.2
20260507105015 66 179 5.2 9.6 0.00 0.00 0.00 46 1015.6
20260507104809 66 179 3.5 4.3 0.00 0.00 0.00 49 1015.6
20260507104611 65 162 4.3 7.0 0.00 0.00 0.00 50 1015.2
20260507104410 65 151 7.0 9.6 0.00 0.00 0.00 51 1015.2
20260507104210 65 133 7.0 7.8 0.00 0.00 0.00 54 1015.2
20260507104018 65 192 5.2 5.2 0.00 0.00 0.00 54 1015.2
20260507103810 64 173 3.5 7.0 0.00 0.00 0.00 53 1015.2
20260507103610 65 185 5.2 6.1 0.00 0.00 0.00 52 1015.2
20260507103410 65 180 5.2 5.2 0.00 0.00 0.00 54 1015.2
20260507103210 64 188 5.2 5.2 0.00 0.00 0.00 53 1015.2
20260507103024 65 181 5.2 7.0 0.00 0.00 0.00 52 1015.2
20260507102810 65 169 6.1 7.0 0.00 0.00 0.00 51 1015.2
20260507102610 65 183 2.6 7.0 0.00 0.00 0.00 51 1015.2
20260507102409 66 173 7.0 7.0 0.00 0.00 0.00 52 1015.2
20260507102210 66 172 4.3 5.2 0.00 0.00 0.00 52 1015.2
20260507102016 66 179 2.6 4.3 0.00 0.00 0.00 53 1015.6
20260507101811 67 171 2.6 7.8 0.00 0.00 0.00 53 1015.2
20260507101610 67 145 7.0 8.7 0.00 0.00 0.00 52 1015.2
20260507101210 67 155 3.5 7.8 0.00 0.00 0.00 55 1015.2
20260507101015 67 161 6.1 7.8 0.00 0.00 0.00 54 1015.2
20260507100810 67 172 5.2 7.0 0.00 0.00 0.00 55 1015.2
20260507100610 67 161 7.0 8.7 0.00 0.00 0.00 56 1015.6
20260507100410 67 177 4.3 6.1 0.00 0.00 0.00 57 1015.6
20260507100210 67 138 4.3 8.7 0.00 0.00 0.00 58 1015.6
20260507100035 67 162 4.3 5.2 0.00 0.00 0.00 57 1015.6
20260507095809 66 156 4.3 7.0 0.00 0.00 0.00 58 1015.2
20260507095610 66 164 6.1 7.0 0.00 0.00 0.00 58 1015.2
20260507095410 66 168 4.3 5.2 0.00 0.00 0.00 60 1015.2
20260507095210 66 167 3.5 6.1 0.00 0.00 0.00 59 1015.2
20260507095015 66 155 6.1 7.0 0.00 0.00 0.00 60 1015.6
20260507094810 65 172 2.6 6.1 0.00 0.00 0.00 62 1015.2
20260507094610 65 181 5.2 7.0 0.00 0.00 0.00 62 1015.2
20260507094409 65 165 2.6 6.1 0.00 0.00 0.00 63 1015.6
20260507094210 65 159 5.2 6.1 0.00 0.00 0.00 63 1015.6
20260507094017 65 174 3.5 5.2 0.00 0.00 0.00 64 1015.6
20260507093610 64 145 3.5 6.1 0.00 0.00 0.00 64 1015.6
20260507093411 64 187 3.5 5.2 0.00 0.00 0.00 63 1015.2
20260507093210 64 174 5.2 7.0 0.00 0.00 0.00 64 1015.2
20260507093024 64 168 6.1 7.0 0.00 0.00 0.00 67 1015.6
20260507092810 63 164 5.2 7.0 0.00 0.00 0.00 67 1015.6
20260507092610 63 159 3.5 7.8 0.00 0.00 0.00 65 1015.2
20260507092410 63 185 4.3 5.2 0.00 0.00 0.00 66 1015.2
20260507092210 63 175 4.3 7.0 0.00 0.00 0.00 63 1015.2
20260507092021 63 187 5.2 7.0 0.00 0.00 0.00 65 1015.6
20260507091810 63 171 7.0 7.0 0.00 0.00 0.00 69 1015.6
20260507091610 63 181 4.3 7.0 0.00 0.00 0.00 68 1015.6
20260507091410 63 186 4.3 6.1 0.00 0.00 0.00 69 1015.2
20260507091210 63 180 5.2 6.1 0.00 0.00 0.00 69 1015.2
20260507091016 63 163 4.3 7.0 0.00 0.00 0.00 68 1015.2
20260507090810 62 179 4.3 7.0 0.00 0.00 0.00 70 1015.2
20260507090410 62 185 3.5 5.2 0.00 0.00 0.00 70 1015.6
20260507090210 62 177 3.5 5.2 0.00 0.00 0.00 71 1015.2
20260507085810 62 180 5.2 5.2 0.00 0.00 0.00 72 1015.2
20260507085611 61 195 5.2 6.1 0.00 0.00 0.00 74 1015.6
20260507085210 61 190 6.1 6.1 0.00 0.00 0.00 75 1015.2
20260507085017 60 162 4.3 5.2 0.00 0.00 0.00 75 1015.2
20260507084610 60 171 5.2 7.0 0.00 0.00 0.00 77 1015.2
20260507084410 59 155 6.1 7.0 0.00 0.00 0.00 77 1015.2
20260507084210 59 184 4.3 5.2 0.00 0.00 0.00 77 1015.2
20260507084017 59 189 3.5 5.2 0.00 0.00 0.00 78 1015.2
20260507083810 59 173 4.3 7.0 0.00 0.00 0.00 79 1015.6
20260507083609 58 184 4.3 5.2 0.00 0.00 0.00 81 1015.2
20260507083410 58 175 5.2 6.1 0.00 0.00 0.00 80 1015.2
20260507083210 57 174 5.2 6.1 0.00 0.00 0.00 81 1015.6
20260507083025 57 189 4.3 7.0 0.00 0.00 0.00 82 1015.2
20260507082810 57 158 5.2 5.2 0.00 0.00 0.00 83 1015.2
20260507082610 56 177 5.2 5.2 0.00 0.00 0.00 84 1015.2
20260507082210 56 192 4.3 6.1 0.00 0.00 0.00 85 1015.2
20260507081609 55 173 3.5 5.2 0.00 0.00 0.00 84 1015.2
20260507081410 55 184 5.2 6.1 0.00 0.00 0.00 84 1015.2
20260507081209 55 167 5.2 6.1 0.00 0.00 0.00 85 1015.2
20260507081015 55 180 4.3 6.1 0.00 0.00 0.00 85 1015.2
20260507080810 55 181 4.3 5.2 0.00 0.00 0.00 85 1015.2
20260507080610 54 180 4.3 5.2 0.00 0.00 0.00 85 1015.2
20260507080410 54 180 3.5 5.2 0.00 0.00 0.00 85 1015.2
20260507080211 54 188 4.3 5.2 0.00 0.00 0.00 86 1015.2
20260507080034 54 174 3.5 5.2 0.00 0.00 0.00 86 1015.6
20260507075810 54 165 2.6 5.2 0.00 0.00 0.00 86 1015.2
20260507075409 54 177 4.3 5.2 0.00 0.00 0.00 86 1015.2
20260507075210 54 168 3.5 5.2 0.00 0.00 0.00 86 1015.2
20260507075016 54 177 5.2 7.0 0.00 0.00 0.00 86 1015.2
20260507074810 54 180 6.1 7.0 0.00 0.00 0.00 87 1015.6
20260507074610 54 177 6.1 6.1 0.00 0.00 0.00 88 1015.2
20260507074410 54 171 5.2 5.2 0.00 0.00 0.00 88 1015.2
20260507074210 54 173 3.5 5.2 0.00 0.00 0.00 87 1015.2
20260507074017 54 167 5.2 7.0 0.00 0.00 0.00 87 1015.2
20260507073810 53 171 6.1 7.0 0.00 0.00 0.00 88 1015.2
20260507073610 53 176 6.1 7.0 0.00 0.00 0.00 88 1015.2
20260507073210 53 188 4.3 5.2 0.00 0.00 0.00 88 1015.2
20260507073024 53 181 4.3 5.2 0.00 0.00 0.00 89 1015.2
20260507072811 53 180 3.5 5.2 0.00 0.00 0.00 89 1015.2
20260507072610 53 182 4.3 5.2 0.00 0.00 0.00 90 1015.2
20260507072016 52 189 5.2 5.2 0.00 0.00 0.00 90 1015.2
20260507071810 52 178 3.5 5.2 0.00 0.00 0.00 91 1014.9
20260507071410 52 182 4.3 5.2 0.00 0.00 0.00 91 1015.2
20260507071210 52 167 3.5 5.2 0.00 0.00 0.00 91 1015.2
20260507071017 52 188 5.2 5.2 0.00 0.00 0.00 92 1015.2
20260507070810 52 179 5.2 6.1 0.00 0.00 0.00 92 1015.2
20260507070610 52 175 5.2 5.2 0.00 0.00 0.00 91 1014.9
20260507070411 52 180 4.3 5.2 0.00 0.00 0.00 92 1015.2
20260507070211 51 167 5.2 5.2 0.00 0.00 0.00 92 1015.2
20260507065810 51 182 4.3 5.2 0.00 0.00 0.00 92 1015.2
20260507065610 51 178 4.3 5.2 0.00 0.00 0.00 92 1015.2
20260507065410 51 180 4.3 6.1 0.00 0.00 0.00 92 1014.9
20260507065210 51 177 5.2 6.1 0.00 0.00 0.00 92 1015.2
20260507065017 51 180 4.3 5.2 0.00 0.00 0.00 93 1015.2
20260507064610 51 169 3.5 5.2 0.00 0.00 0.00 93 1014.9
20260507064410 51 178 5.2 6.1 0.00 0.00 0.00 93 1014.9
20260507063810 51 177 5.2 5.2 0.00 0.00 0.00 93 1014.9
20260507063610 51 181 3.5 5.2 0.00 0.00 0.00 93 1014.9
20260507063410 50 172 4.3 5.2 0.00 0.00 0.00 94 1014.9
20260507063210 50 177 4.3 5.2 0.00 0.00 0.00 94 1014.9
20260507063024 50 178 5.2 5.2 0.00 0.00 0.00 94 1014.9
20260507062810 50 176 4.3 5.2 0.00 0.00 0.00 94 1014.9
20260507062610 50 162 3.5 5.2 0.00 0.00 0.00 94 1014.9
20260507062410 50 180 4.3 5.2 0.00 0.00 0.00 94 1014.9
20260507062210 50 177 4.3 5.2 0.00 0.00 0.00 94 1014.9
20260507062017 50 182 5.2 5.2 0.00 0.00 0.00 94 1014.9
20260507061809 50 176 4.3 5.2 0.00 0.00 0.00 94 1014.6
20260507061610 50 176 4.3 5.2 0.00 0.00 0.00 95 1014.6
20260507061410 50 176 5.2 6.1 0.00 0.00 0.00 94 1014.6
20260507061210 50 170 5.2 5.2 0.00 0.00 0.00 95 1014.6
20260507061015 50 178 5.2 6.1 0.00 0.00 0.00 95 1014.6
20260507060809 50 173 5.2 5.2 0.00 0.00 0.00 95 1014.6
20260507060610 50 174 4.3 5.2 0.00 0.00 0.00 95 1014.6
20260507060410 50 178 5.2 6.1 0.00 0.00 0.00 95 1014.6
20260507060210 50 175 5.2 6.1 0.00 0.00 0.00 95 1014.6
20260507060033 49 176 5.2 5.2 0.00 0.00 0.00 95 1014.2
20260507055810 49 170 4.3 5.2 0.00 0.00 0.00 95 1014.6
20260507055615 49 175 5.2 6.1 0.00 0.00 0.00 95 1014.6
20260507055410 49 163 5.2 6.1 0.00 0.00 0.00 95 1014.2
20260507055210 49 180 5.2 7.8 0.00 0.00 0.00 95 1014.6
20260507055017 49 183 6.1 7.8 0.00 0.00 0.00 95 1014.6
20260507054810 49 180 5.2 7.0 0.00 0.00 0.00 95 1014.6
20260507054610 49 177 5.2 6.1 0.00 0.00 0.00 95 1014.6
20260507054210 49 174 5.2 5.2 0.00 0.00 0.00 95 1014.6
20260507054015 49 171 5.2 6.1 0.00 0.00 0.00 95 1014.6
20260507053810 49 179 5.2 5.2 0.00 0.00 0.00 95 1014.9
20260507053610 49 180 5.2 7.0 0.00 0.00 0.00 95 1014.6
20260507053410 49 165 5.2 6.1 0.00 0.00 0.00 95 1014.9
20260507053210 49 178 4.3 7.0 0.00 0.00 0.00 95 1014.6
20260507053023 49 173 5.2 6.1 0.00 0.00 0.00 95 1014.6
20260507052809 49 174 5.2 5.2 0.00 0.00 0.00 95 1014.6
20260507052610 49 176 4.3 5.2 0.00 0.00 0.00 95 1014.2
20260507052410 49 175 5.2 5.2 0.00 0.00 0.00 95 1014.6
20260507052210 49 180 5.2 7.0 0.00 0.00 0.00 95 1014.2
20260507052016 49 180 5.2 7.0 0.00 0.00 0.00 95 1014.6
20260507051809 49 174 6.1 7.0 0.00 0.00 0.00 95 1014.2
20260507051610 49 175 5.2 7.0 0.00 0.00 0.00 95 1014.6
20260507051410 49 178 5.2 7.8 0.00 0.00 0.00 95 1014.2
20260507051016 49 177 5.2 6.1 0.00 0.00 0.00 95 1014.2
20260507050810 48 179 5.2 7.0 0.00 0.00 0.00 95 1014.2
20260507050410 48 182 6.1 7.0 0.00 0.00 0.00 95 1014.6
20260507050210 48 176 5.2 6.1 0.00 0.00 0.00 95 1014.6
20260507045810 48 177 6.1 7.0 0.00 0.00 0.00 95 1014.2
20260507045610 48 177 5.2 6.1 0.00 0.00 0.00 95 1014.2
20260507045411 48 178 5.2 6.1 0.00 0.00 0.00 95 1014.2
20260507045210 48 174 5.2 6.1 0.00 0.00 0.00 95 1014.2
20260507045017 48 176 6.1 6.1 0.00 0.00 0.00 95 1014.2
20260507044810 48 177 5.2 7.0 0.00 0.00 0.00 95 1014.2
20260507044610 48 180 6.1 7.0 0.00 0.00 0.00 95 1014.2
20260507044410 48 176 5.2 5.2 0.00 0.00 0.00 95 1013.9
20260507044210 48 177 5.2 6.1 0.00 0.00 0.00 95 1014.2
20260507044016 48 174 5.2 6.1 0.00 0.00 0.00 95 1014.2
20260507043809 48 175 5.2 6.1 0.00 0.00 0.00 95 1014.2
20260507043611 48 177 5.2 6.1 0.00 0.00 0.00 95 1013.9
20260507043410 48 176 5.2 5.2 0.00 0.00 0.00 95 1014.2
20260507043210 48 175 6.1 6.1 0.00 0.00 0.00 95 1014.2
20260507043024 48 176 5.2 6.1 0.00 0.00 0.00 95 1013.9
20260507042810 48 178 5.2 7.0 0.00 0.00 0.00 95 1014.2
20260507042610 48 176 5.2 7.0 0.00 0.00 0.00 95 1014.2
20260507042410 48 178 6.1 7.0 0.00 0.00 0.00 95 1013.9
20260507042209 48 178 5.2 7.0 0.00 0.00 0.00 95 1013.9
20260507042017 48 179 6.1 7.0 0.00 0.00 0.00 95 1013.9
20260507041810 48 177 5.2 6.1 0.00 0.00 0.00 95 1013.9
20260507041610 48 177 5.2 7.0 0.00 0.00 0.00 95 1014.2
20260507041410 48 174 6.1 7.0 0.00 0.00 0.00 95 1013.9
20260507041210 48 177 7.0 7.0 0.00 0.00 0.00 95 1013.9
20260507040810 48 175 5.2 7.0 0.00 0.00 0.00 95 1013.9
20260507040610 48 177 5.2 6.1 0.00 0.00 0.00 95 1013.9
20260507040410 48 176 5.2 7.0 0.00 0.00 0.00 95 1013.9
20260507040210 48 178 6.1 7.0 0.00 0.00 0.00 95 1013.9
20260507040040 48 176 5.2 6.1 0.00 0.00 0.00 95 1013.9
20260507035610 48 177 7.0 7.0 0.00 0.00 0.00 95 1014.2
20260507035210 48 175 6.1 6.1 0.00 0.00 0.00 95 1013.9
20260507035015 48 177 6.1 6.1 0.00 0.00 0.00 95 1013.9
20260507034810 48 179 6.1 6.1 0.00 0.00 0.00 95 1013.9
20260507034610 48 176 6.1 7.0 0.00 0.00 0.00 95 1013.9
20260507034410 48 175 6.1 7.0 0.00 0.00 0.00 95 1013.9
20260507034210 48 176 6.1 7.0 0.00 0.00 0.00 95 1013.9
20260507033810 48 177 6.1 6.1 0.00 0.00 0.00 94 1013.9
20260507033610 48 177 5.2 6.1 0.00 0.00 0.00 94 1013.9
20260507033209 48 176 5.2 6.1 0.00 0.00 0.00 94 1013.9
20260507033022 48 177 5.2 6.1 0.00 0.00 0.00 94 1013.9
20260507032809 48 177 5.2 6.1 0.00 0.00 0.00 94 1013.5
20260507032610 48 178 5.2 6.1 0.00 0.00 0.00 94 1013.9
20260507032410 48 177 6.1 6.1 0.00 0.00 0.00 94 1013.5
20260507032211 48 176 5.2 6.1 0.00 0.00 0.00 94 1013.9
20260507032016 48 176 6.1 7.0 0.00 0.00 0.00 94 1013.5
20260507031810 48 176 5.2 6.1 0.00 0.00 0.00 94 1013.9
20260507031609 48 177 5.2 7.0 0.00 0.00 0.00 94 1013.9
20260507031410 48 178 6.1 7.0 0.00 0.00 0.00 94 1013.9
20260507031210 48 180 5.2 7.0 0.00 0.00 0.00 94 1013.9
20260507031017 48 178 6.1 6.1 0.00 0.00 0.00 94 1013.9
20260507030810 48 175 6.1 6.1 0.00 0.00 0.00 94 1013.9
20260507030409 48 175 5.2 7.0 0.00 0.00 0.00 94 1013.9
20260507030210 48 179 7.0 7.0 0.00 0.00 0.00 94 1014.2
20260507030034 48 179 5.2 6.1 0.00 0.00 0.00 94 1013.9
20260507025810 48 179 5.2 6.1 0.00 0.00 0.00 94 1013.9
20260507025410 48 178 5.2 6.1 0.00 0.00 0.00 94 1013.9
20260507025210 48 177 5.2 6.1 0.00 0.00 0.00 94 1013.9
20260507024809 48 177 5.2 6.1 0.00 0.00 0.00 94 1013.9
20260507024610 48 176 5.2 6.1 0.00 0.00 0.00 94 1013.9
20260507024410 48 178 5.2 6.1 0.00 0.00 0.00 94 1013.9
20260507024210 48 177 6.1 6.1 0.00 0.00 0.00 94 1013.9
20260507024015 48 178 5.2 6.1 0.00 0.00 0.00 94 1013.9
20260507023809 48 177 5.2 6.1 0.00 0.00 0.00 94 1013.9
20260507023610 48 178 5.2 6.1 0.00 0.00 0.00 94 1013.9
20260507023410 48 180 5.2 6.1 0.00 0.00 0.00 94 1013.9
20260507023023 48 178 6.1 6.1 0.00 0.00 0.00 94 1013.9
20260507022810 48 178 5.2 7.0 0.00 0.00 0.00 94 1013.9
20260507022610 48 173 5.2 7.0 0.00 0.00 0.00 94 1013.9
20260507022409 48 176 6.1 6.1 0.00 0.00 0.00 94 1013.9
20260507022210 48 178 5.2 6.1 0.00 0.00 0.00 94 1013.9
20260507022015 48 177 5.2 6.1 0.00 0.00 0.00 94 1013.9
20260507021810 48 180 5.2 6.1 0.00 0.00 0.00 94 1013.9
20260507021610 48 179 5.2 6.1 0.00 0.00 0.00 94 1013.9
20260507021210 48 175 5.2 6.1 0.00 0.00 0.00 94 1013.5
20260507020810 48 177 5.2 5.2 0.00 0.00 0.00 94 1013.9
20260507020615 48 174 5.2 5.2 0.00 0.00 0.00 94 1013.9
20260507020409 47 175 5.2 6.1 0.00 0.00 0.00 94 1013.9
20260507020210 48 176 5.2 6.1 0.00 0.00 0.00 94 1013.5
20260507015810 47 178 5.2 6.1 0.00 0.00 0.00 94 1013.5
20260507015610 47 179 5.2 6.1 0.00 0.00 0.00 94 1013.5
20260507015210 47 181 5.2 6.1 0.00 0.00 0.00 94 1013.5
20260507015016 47 175 6.1 6.1 0.00 0.00 0.00 94 1013.9
20260507014611 47 175 5.2 6.1 0.00 0.00 0.00 94 1013.5
20260507014410 47 179 5.2 5.2 0.00 0.00 0.00 94 1013.5
20260507014210 47 179 5.2 6.1 0.00 0.00 0.00 94 1013.5
20260507013810 47 179 6.1 6.1 0.00 0.00 0.00 94 1013.5
20260507013610 47 179 5.2 6.1 0.00 0.00 0.00 94 1013.5
20260507013410 47 179 6.1 6.1 0.00 0.00 0.00 94 1013.5
20260507013209 47 178 5.2 5.2 0.00 0.00 0.00 94 1013.5
20260507013023 47 179 5.2 6.1 0.00 0.00 0.00 94 1013.5
20260507012810 47 180 5.2 6.1 0.00 0.00 0.00 94 1013.5
20260507012610 47 172 5.2 6.1 0.00 0.00 0.00 93 1013.5
20260507012410 47 174 5.2 6.1 0.00 0.00 0.00 93 1013.5
20260507012210 47 177 6.1 7.0 0.00 0.00 0.00 93 1013.5
20260507012015 47 177 6.1 7.0 0.00 0.00 0.00 93 1013.5
20260507011809 47 180 5.2 7.0 0.00 0.00 0.00 93 1013.5
20260507011610 47 179 6.1 7.0 0.00 0.00 0.00 93 1013.5
20260507011409 47 178 5.2 7.0 0.00 0.00 0.00 93 1013.5
20260507011209 47 178 6.1 6.1 0.00 0.00 0.00 93 1013.5
20260507011016 47 177 5.2 5.2 0.00 0.00 0.00 93 1013.5
20260507010810 47 179 5.2 5.2 0.00 0.00 0.00 93 1013.5
20260507010610 47 175 5.2 6.1 0.00 0.00 0.00 93 1013.5
20260507010410 47 174 5.2 6.1 0.00 0.00 0.00 93 1013.5
20260507010210 47 176 6.1 6.1 0.00 0.00 0.00 93 1013.5
20260507010035 47 173 5.2 6.1 0.00 0.00 0.00 93 1013.5
20260507005610 47 177 5.2 6.1 0.00 0.00 0.00 93 1013.5
20260507005409 47 177 5.2 5.2 0.00 0.00 0.00 93 1013.5
20260507005209 47 169 5.2 7.0 0.00 0.00 0.00 93 1013.5
20260507005016 47 180 6.1 7.0 0.00 0.00 0.00 93 1013.5
20260507004610 47 176 5.2 5.2 0.00 0.00 0.00 93 1013.5
20260507004410 47 177 5.2 7.0 0.00 0.00 0.00 93 1013.5
20260507004210 47 175 5.2 5.2 0.00 0.00 0.00 93 1013.2
20260507003809 47 178 5.2 6.1 0.00 0.00 0.00 93 1013.5
20260507003610 47 178 5.2 6.1 0.00 0.00 0.00 93 1013.5
20260507003410 47 178 5.2 5.2 0.00 0.00 0.00 93 1013.5
20260507003210 47 180 5.2 6.1 0.00 0.00 0.00 93 1013.5
20260507003023 47 179 5.2 6.1 0.00 0.00 0.00 93 1013.5
20260507002809 47 180 5.2 6.1 0.00 0.00 0.00 93 1013.5
20260507002609 47 179 6.1 6.1 0.00 0.00 0.00 93 1013.5
20260507002410 47 180 5.2 7.0 0.00 0.00 0.00 93 1013.5
20260507002210 47 174 5.2 6.1 0.00 0.00 0.00 93 1013.5
20260507002016 47 174 5.2 6.1 0.00 0.00 0.00 93 1013.5
20260507001809 47 179 5.2 6.1 0.00 0.00 0.00 93 1013.5
20260507001610 47 173 5.2 6.1 0.00 0.00 0.00 93 1013.5
20260507001410 47 179 5.2 6.1 0.00 0.00 0.00 93 1013.2
20260507001210 47 173 6.1 6.1 0.00 0.00 0.00 93 1013.5
20260507000810 47 175 5.2 5.2 0.00 0.00 0.00 93 1013.5
20260507000412 47 176 6.1 6.1 0.00 0.00 0.00 93 1013.5
20260507000212 47 176 5.2 6.1 0.00 0.00 0.00 92 1013.2
20260507000036 47 179 5.2 5.2 0.00 0.00 0.00 92 1013.5
20260506235810 47 179 5.2 6.1 0.00 0.00 0.00 92 1013.5
20260506235611 47 179 5.2 7.0 0.00 0.00 0.00 92 1013.5
20260506235210 47 177 5.2 6.1 0.00 0.00 0.00 92 1013.5
20260506235016 47 180 5.2 7.0 0.00 0.00 0.00 92 1013.5
20260506234809 46 174 5.2 6.1 0.00 0.00 0.00 92 1013.5
20260506234610 46 175 6.1 6.1 0.00 0.00 0.00 92 1013.5
20260506234410 46 174 5.2 6.1 0.00 0.00 0.00 92 1013.5
20260506234210 46 179 5.2 6.1 0.00 0.00 0.00 92 1013.5
20260506234016 46 177 5.2 6.1 0.00 0.00 0.00 91 1013.5
20260506233810 46 178 6.1 6.1 0.00 0.00 0.00 91 1013.5
20260506233610 46 177 5.2 6.1 0.00 0.00 0.00 91 1013.5
20260506233210 46 177 5.2 6.1 0.00 0.00 0.00 91 1013.2
20260506233026 46 176 5.2 6.1 0.00 0.00 0.00 91 1013.5
20260506232410 46 177 6.1 7.0 0.00 0.00 0.00 91 1013.5
20260506232210 46 177 5.2 7.0 0.00 0.00 0.00 91 1013.5
20260506232016 46 177 6.1 7.0 0.00 0.00 0.00 91 1013.5
20260506231410 46 178 5.2 6.1 0.00 0.00 0.00 90 1013.2
20260506231210 46 177 5.2 6.1 0.00 0.00 0.00 90 1013.2
20260506231016 46 176 5.2 6.1 0.00 0.00 0.00 90 1013.2
20260506230810 46 177 5.2 5.2 0.00 0.00 0.00 90 1013.5
20260506230609 46 178 5.2 6.1 0.00 0.00 0.00 90 1013.5
20260506230410 46 177 5.2 6.1 0.00 0.00 0.00 90 1013.5
20260506230210 46 179 5.2 6.1 0.00 0.00 0.00 90 1013.5
20260506230033 46 178 5.2 6.1 0.00 0.00 0.00 90 1013.5
20260506225810 46 176 6.1 6.1 0.00 0.00 0.00 90 1013.2
20260506225410 47 176 5.2 6.1 0.00 0.00 0.00 89 1013.5
20260506225017 47 171 6.1 6.1 0.00 0.00 0.00 89 1013.5
20260506224809 47 177 5.2 6.1 0.00 0.00 0.00 89 1013.2
20260506224610 47 173 5.2 6.1 0.00 0.00 0.00 89 1013.2
20260506224412 47 176 5.2 6.1 0.00 0.00 0.00 89 1013.5
20260506224210 47 175 6.1 7.0 0.00 0.00 0.00 89 1013.2
20260506224016 47 177 6.1 7.0 0.00 0.00 0.00 89 1013.2
20260506223809 47 176 6.1 6.1 0.00 0.00 0.00 89 1012.9
20260506223609 47 177 5.2 6.1 0.00 0.00 0.00 89 1013.2
20260506223409 47 179 6.1 6.1 0.00 0.00 0.00 88 1013.2
20260506223210 47 178 5.2 6.1 0.00 0.00 0.00 88 1012.9
20260506223023 47 177 5.2 6.1 0.00 0.00 0.00 88 1013.2
20260506222811 47 178 6.1 6.1 0.00 0.00 0.00 88 1013.2
20260506222411 47 177 5.2 6.1 0.00 0.00 0.00 88 1013.2
20260506222016 47 176 6.1 7.0 0.00 0.00 0.00 88 1013.2
20260506221810 47 176 5.2 7.0 0.00 0.00 0.00 88 1013.2
20260506221610 47 176 6.1 7.0 0.00 0.00 0.00 88 1013.2
20260506221210 48 176 5.2 7.0 0.00 0.00 0.00 88 1013.2
20260506221015 48 174 6.1 7.0 0.00 0.00 0.00 88 1012.9
20260506220810 48 174 6.1 7.0 0.00 0.00 0.00 88 1012.9
20260506220610 48 176 6.1 7.0 0.00 0.00 0.00 87 1013.2
20260506220412 48 176 5.2 6.1 0.00 0.00 0.00 87 1013.2
20260506220033 48 175 6.1 7.0 0.00 0.00 1.27 87 1012.9
20260506215810 48 177 6.1 6.1 0.00 0.00 1.27 87 1012.9
20260506215610 48 177 5.2 6.1 0.00 0.00 1.27 87 1012.9
20260506215410 48 177 5.2 7.0 0.00 0.00 1.27 87 1012.9
20260506215210 48 174 6.1 7.0 0.00 0.00 1.27 87 1012.9
20260506215020 48 174 5.2 6.1 0.00 0.00 1.27 87 1012.9
20260506214810 48 175 6.1 7.0 0.00 0.00 1.27 87 1012.9
20260506214610 48 178 6.1 7.0 0.00 0.00 1.27 87 1012.9
20260506214410 48 177 6.1 7.0 0.00 0.00 1.27 86 1012.9
20260506214211 48 176 5.2 6.1 0.00 0.00 1.27 86 1012.9
20260506213810 48 177 5.2 6.1 0.00 0.00 1.27 86 1012.9
20260506213410 49 177 6.1 7.0 0.00 0.00 1.27 86 1012.9
20260506213210 49 175 5.2 7.0 0.00 0.00 1.27 86 1012.9
20260506212810 49 176 6.1 7.0 0.00 0.00 1.27 85 1012.9
20260506212610 49 177 5.2 7.0 0.00 0.00 1.27 85 1012.9
20260506212410 49 178 5.2 7.0 0.00 0.00 1.27 85 1012.9
20260506212209 49 176 6.1 7.0 0.00 0.00 1.27 85 1012.5
20260506212016 49 177 5.2 6.1 0.00 0.00 1.27 85 1012.9
20260506211609 49 175 6.1 6.1 0.00 0.00 1.27 85 1012.9
20260506211410 49 177 5.2 6.1 0.00 0.00 1.27 85 1012.9
20260506211016 49 179 6.1 6.1 0.00 0.00 1.27 85 1012.9
20260506210609 50 176 5.2 6.1 0.00 0.00 1.27 84 1012.9
20260506210211 50 179 5.2 6.1 0.00 0.00 1.27 84 1012.9
20260506210032 50 176 5.2 6.1 0.00 0.00 1.27 84 1012.9
20260506205810 50 177 6.1 6.1 0.00 0.00 1.27 84 1012.9
20260506205610 50 174 5.2 7.0 0.00 0.00 1.27 83 1012.9
20260506205410 50 177 5.2 6.1 0.00 0.00 1.27 83 1012.9
20260506205210 50 176 5.2 6.1 0.00 0.00 1.27 83 1012.9
20260506205015 50 176 5.2 6.1 0.00 0.00 1.27 83 1012.9
20260506204810 50 177 6.1 6.1 0.00 0.00 1.27 83 1012.5
20260506204410 50 178 5.2 7.0 0.00 0.00 1.27 83 1012.9
20260506204209 50 176 5.2 7.0 0.00 0.00 1.27 83 1012.9
20260506204016 50 174 6.1 7.0 0.00 0.00 1.27 82 1012.5
20260506203810 50 176 5.2 6.1 0.00 0.00 1.27 82 1012.9
20260506203610 50 174 6.1 7.0 0.00 0.00 1.27 82 1012.5
20260506203410 51 175 6.1 6.1 0.00 0.00 1.27 82 1012.5
20260506203210 51 175 5.2 7.0 0.00 0.00 1.27 82 1012.5
20260506203024 51 177 5.2 7.0 0.00 0.00 1.27 82 1012.9
20260506202810 51 175 6.1 6.1 0.00 0.00 1.27 82 1012.5
20260506202610 51 176 5.2 7.0 0.00 0.00 1.27 81 1012.5
20260506202210 51 177 6.1 6.1 0.00 0.00 1.27 81 1012.5
20260506202016 51 176 5.2 7.0 0.00 0.00 1.27 81 1012.5
20260506201610 51 176 6.1 7.0 0.00 0.00 1.27 81 1012.5
20260506201017 52 177 6.1 7.0 0.00 0.00 1.27 80 1012.2
20260506200810 52 173 5.2 7.0 0.00 0.00 1.27 80 1012.2
20260506200610 52 178 5.2 7.0 0.00 0.00 1.27 80 1012.5
20260506200410 52 175 5.2 6.1 0.00 0.00 1.27 79 1012.2
20260506200211 52 175 5.2 7.0 0.00 0.00 1.27 79 1012.5
20260506200033 52 176 7.0 7.0 0.00 0.00 1.27 79 1012.2
20260506195810 52 175 6.1 7.0 0.00 0.00 1.27 79 1012.2
20260506195610 53 175 6.1 6.1 0.00 0.00 1.27 79 1012.2
20260506195410 53 171 5.2 7.0 0.00 0.00 1.27 78 1012.2
20260506195210 53 177 5.2 7.0 0.00 0.00 1.27 78 1012.2
20260506195016 53 175 6.1 7.0 0.00 0.00 1.27 78 1012.2
20260506194810 53 176 5.2 6.1 0.00 0.00 1.27 78 1012.2
20260506194610 53 175 5.2 6.1 0.00 0.00 1.27 77 1012.2
20260506194411 53 179 5.2 6.1 0.00 0.00 1.27 77 1011.9
20260506194210 53 178 6.1 6.1 0.00 0.00 1.27 77 1011.9
20260506194015 53 181 5.2 6.1 0.00 0.00 1.27 77 1011.9
20260506193810 53 180 5.2 6.1 0.00 0.00 1.27 77 1011.9
20260506193610 53 178 6.1 6.1 0.00 0.00 1.27 77 1011.9
20260506193409 54 179 5.2 6.1 0.00 0.00 1.27 76 1011.9
20260506193209 54 179 5.2 5.2 0.00 0.00 1.27 76 1011.9
20260506193024 54 180 5.2 6.1 0.00 0.00 1.27 76 1011.9
20260506192810 54 178 5.2 6.1 0.00 0.00 1.27 76 1011.9
20260506192610 54 180 5.2 6.1 0.00 0.00 1.27 76 1011.9
20260506192410 54 178 5.2 6.1 0.00 0.00 1.27 75 1011.9
20260506192210 54 180 5.2 6.1 0.00 0.00 1.27 75 1011.5
20260506192017 54 180 5.2 5.2 0.00 0.00 1.27 75 1011.9
20260506191610 54 178 4.3 5.2 0.00 0.00 1.27 75 1011.5
20260506191410 54 180 4.3 5.2 0.00 0.00 1.27 75 1011.9
20260506191016 54 177 5.2 7.0 0.00 0.00 1.27 74 1011.5
20260506190810 54 173 3.5 5.2 0.00 0.00 1.27 74 1011.5
20260506190410 55 176 3.5 5.2 0.00 0.00 1.27 74 1011.5
20260506190210 55 175 4.3 5.2 0.00 0.00 1.27 74 1011.5
20260506190035 55 180 4.3 5.2 0.00 0.00 1.27 74 1011.5
20260506185810 55 179 4.3 6.1 0.00 0.00 1.27 74 1011.5
20260506185610 55 169 5.2 6.1 0.00 0.00 1.27 73 1011.5
20260506185410 55 180 3.5 5.2 0.00 0.00 1.27 73 1011.2
20260506185016 55 178 4.3 5.2 0.00 0.00 1.27 73 1011.5
20260506184812 55 180 4.3 5.2 0.00 0.00 1.27 73 1011.5
20260506184610 55 172 5.2 7.0 0.00 0.00 1.27 73 1011.5
20260506184210 55 176 4.3 6.1 0.00 0.00 1.27 72 1011.2
20260506184016 55 187 4.3 5.2 0.00 0.00 1.27 72 1011.5
20260506183810 55 186 4.3 5.2 0.00 0.00 1.27 72 1011.2
20260506183610 55 180 4.3 5.2 0.00 0.00 1.27 72 1011.5
20260506183409 55 207 4.3 7.0 0.00 0.00 1.27 72 1011.2
20260506183211 55 194 6.1 7.0 0.00 0.00 1.27 72 1011.2
20260506183025 55 183 5.2 6.1 0.00 0.00 1.27 72 1011.2
20260506182810 55 178 4.3 6.1 0.00 0.00 1.27 72 1011.2
20260506182610 55 188 4.3 7.0 0.00 0.00 1.27 72 1011.5
20260506182410 55 168 3.5 6.1 0.00 0.00 1.27 71 1011.2
20260506182016 55 173 5.2 5.2 0.00 0.00 1.27 71 1011.2
20260506181810 55 178 4.3 5.2 0.00 0.00 1.27 71 1011.2
20260506181611 55 180 5.2 5.2 0.00 0.00 1.27 71 1011.2
20260506181410 55 180 4.3 5.2 0.00 0.00 1.27 71 1011.2
20260506181016 56 172 5.2 7.0 0.00 0.00 1.27 70 1011.2
20260506180810 56 182 7.0 7.0 0.00 0.00 1.27 70 1010.8
20260506180610 56 180 3.5 6.1 0.00 0.00 1.27 70 1010.8
20260506180410 56 180 3.5 7.8 0.00 0.00 1.27 70 1010.8
20260506180211 56 171 4.3 6.1 0.00 0.00 1.27 70 1010.8
20260506180034 56 179 4.3 6.1 0.00 0.00 1.27 70 1010.8
20260506175810 56 182 4.3 9.6 0.00 0.00 1.27 71 1011.2
20260506175410 56 176 2.6 7.0 0.00 0.00 1.27 70 1010.8
20260506175210 56 176 3.5 7.0 0.00 0.00 1.27 70 1010.8
20260506174809 56 162 2.6 5.2 0.00 0.00 1.27 71 1010.8
20260506174610 56 175 3.5 6.1 0.00 0.00 1.27 70 1010.8
20260506174410 57 176 3.5 5.2 0.00 0.00 1.27 70 1010.8
20260506174017 57 181 3.5 5.2 0.00 0.00 1.27 70 1010.8
20260506173810 57 189 5.2 5.2 0.00 0.00 1.27 70 1010.8
20260506173610 57 172 5.2 5.2 0.00 0.00 1.27 70 1010.5
20260506173410 57 176 3.5 7.0 0.00 0.00 1.27 69 1010.8
20260506173210 57 173 2.6 5.2 0.00 0.00 1.27 69 1010.5
20260506173024 57 146 2.6 6.1 0.00 0.00 1.27 68 1010.5
20260506172811 57 177 5.2 7.0 0.00 0.00 1.27 68 1010.8
20260506172610 57 176 4.3 6.1 0.00 0.00 1.27 68 1010.8
20260506172410 57 170 5.2 5.2 0.00 0.00 1.27 67 1010.5
20260506172016 57 172 4.3 6.1 0.00 0.00 1.27 68 1010.8
20260506171810 57 189 5.2 6.1 0.00 0.00 1.27 67 1010.8
20260506171610 57 180 4.3 5.2 0.00 0.00 1.27 67 1010.5
20260506171409 57 190 4.3 6.1 0.00 0.00 1.27 66 1010.5
20260506171210 57 175 3.5 5.2 0.00 0.00 1.27 67 1010.5
20260506171017 57 166 2.6 8.7 0.00 0.00 1.27 66 1010.5
20260506170810 57 140 5.2 7.0 0.00 0.00 1.27 66 1010.5
20260506170610 57 159 3.5 7.0 0.00 0.00 1.27 66 1010.5
20260506170210 57 173 3.5 5.2 0.00 0.00 1.27 65 1010.5
20260506170036 58 193 3.5 7.0 0.00 0.00 1.27 65 1010.5
20260506165810 58 188 3.5 7.0 0.00 0.00 1.27 65 1010.8
20260506165610 58 161 4.3 6.1 0.00 0.00 1.27 65 1010.5
20260506165210 58 167 4.3 5.2 0.00 0.00 1.27 66 1010.5
20260506165016 58 200 4.3 4.3 0.00 0.00 1.27 65 1010.5
20260506164810 58 168 3.5 7.8 0.00 0.00 1.27 65 1010.5
20260506164610 58 213 7.8 7.8 0.00 0.00 1.27 65 1010.5
20260506164410 58 133 4.3 5.2 0.00 0.00 1.27 65 1010.5
20260506164210 58 180 3.5 5.2 0.00 0.00 1.27 64 1010.5
20260506164017 58 177 3.5 7.0 0.00 0.00 1.27 65 1010.5
20260506163610 58 166 2.6 6.1 0.00 0.00 1.27 64 1010.5
20260506163410 58 146 3.5 6.1 0.00 0.00 1.27 64 1010.2
20260506163210 58 192 4.3 7.8 0.00 0.00 1.27 64 1010.5
20260506163024 58 152 4.3 7.0 0.00 0.00 1.27 64 1010.2
20260506162810 58 180 4.3 5.2 0.00 0.00 1.27 65 1010.5
20260506162609 58 203 3.5 5.2 0.00 0.00 1.27 65 1010.2
20260506162409 58 171 3.5 5.2 0.00 0.00 1.27 64 1010.2
20260506162209 58 171 5.2 7.0 0.00 0.00 1.27 64 1010.2
20260506161810 58 172 4.3 5.2 0.00 0.00 1.27 64 1010.5
20260506161610 58 171 2.6 6.1 0.00 0.00 1.27 64 1010.2
20260506161210 58 184 3.5 6.1 0.00 0.00 1.27 63 1010.2
20260506161017 58 157 5.2 6.1 0.00 0.00 1.27 63 1010.2
20260506160610 59 180 3.5 5.2 0.00 0.00 1.27 63 1010.2
20260506160410 59 176 4.3 5.2 0.00 0.00 1.27 63 1010.2
20260506160211 59 180 4.3 5.2 0.00 0.00 1.27 64 1010.2
20260506155810 59 175 3.5 5.2 0.00 0.00 1.27 64 1010.2
20260506155610 59 188 3.5 5.2 0.00 0.00 1.27 65 1010.2
20260506155410 59 180 4.3 7.0 0.00 0.00 1.27 65 1010.2
20260506155016 59 192 5.2 5.2 0.00 0.00 1.27 64 1010.2
20260506154609 59 190 5.2 5.2 0.00 0.00 1.27 65 1009.8
20260506154409 59 176 3.5 5.2 0.00 0.00 1.27 65 1010.2
20260506154210 59 188 5.2 7.8 0.00 0.00 1.27 65 1010.2
20260506154016 59 167 3.5 6.1 0.00 0.00 1.27 66 1009.8
20260506153610 58 192 4.3 7.0 0.00 0.00 1.27 66 1010.2
20260506153211 58 180 3.5 6.1 0.00 0.00 1.27 65 1010.2
20260506153025 58 180 3.5 6.1 0.00 0.00 1.27 65 1010.2
20260506152810 58 171 3.5 5.2 0.00 0.00 1.27 65 1010.5
20260506152610 58 178 3.5 5.2 0.00 0.00 1.27 64 1010.2
20260506152410 58 201 4.3 5.2 0.00 0.00 1.27 63 1010.2
20260506152210 58 198 4.3 7.0 0.00 0.00 1.27 64 1010.5
20260506152016 58 166 3.5 7.8 0.00 0.00 1.27 64 1010.2
20260506151810 58 182 4.3 6.1 0.00 0.00 1.27 63 1010.5
20260506151410 58 179 4.3 5.2 0.00 0.00 1.27 63 1010.5
20260506151210 59 178 4.3 7.0 0.00 0.00 1.27 63 1010.2
20260506151016 59 200 5.2 7.0 0.00 0.00 1.27 64 1010.5
20260506150810 59 165 6.1 7.0 0.00 0.00 1.27 63 1010.2
20260506150610 59 190 5.2 7.0 0.00 0.00 1.27 62 1010.5
20260506150410 59 187 3.5 7.0 0.00 0.00 1.27 63 1010.2
20260506150210 59 180 4.3 7.0 0.00 0.00 1.27 63 1010.2
20260506150035 59 202 5.2 7.0 0.00 0.00 1.27 62 1010.5
20260506145810 59 180 5.2 5.2 0.00 0.00 1.27 62 1010.2
20260506145610 59 167 3.5 5.2 0.00 0.00 1.27 62 1010.5
20260506145410 59 101 2.6 5.2 0.00 0.00 1.27 63 1010.5
20260506145210 59 176 3.5 5.2 0.00 0.00 1.27 63 1010.2
20260506145018 59 188 3.5 6.1 0.00 0.00 1.27 62 1010.2
20260506144810 60 175 4.3 6.1 0.00 0.00 1.27 62 1010.5
20260506144409 60 176 3.5 5.2 0.00 0.00 1.27 61 1010.2
20260506144210 60 183 4.3 5.2 0.00 0.00 1.27 62 1010.2
20260506144017 60 170 3.5 7.0 0.00 0.00 1.27 62 1010.2
20260506143810 60 186 4.3 5.2 0.00 0.00 1.27 61 1010.2
20260506143210 61 173 4.3 6.1 0.00 0.00 1.27 60 1010.2
20260506143026 61 178 3.5 6.1 0.00 0.00 1.27 60 1010.2
20260506142611 61 184 4.3 6.1 0.00 0.00 1.27 60 1010.2
20260506142409 61 162 2.6 7.8 0.00 0.00 1.27 58 1010.2
20260506142210 61 187 4.3 7.8 0.00 0.00 1.27 59 1010.2
20260506142016 62 169 5.2 7.0 0.00 0.00 1.27 58 1010.2
20260506141810 62 177 4.3 7.0 0.00 0.00 1.27 57 1010.2
20260506141610 62 183 5.2 6.1 0.00 0.00 1.27 57 1010.2
20260506141410 62 180 4.3 5.2 0.00 0.00 1.27 56 1010.2
20260506141211 62 194 3.5 6.1 0.00 0.00 1.27 57 1010.2
20260506141016 62 172 4.3 6.1 0.00 0.00 1.27 57 1010.2
20260506140809 63 155 3.5 5.2 0.00 0.00 1.27 56 1009.8
20260506140610 63 170 3.5 5.2 0.00 0.00 1.27 57 1009.8
20260506140410 63 184 4.3 5.2 0.00 0.00 1.27 58 1009.8
20260506140210 63 181 4.3 6.1 0.00 0.00 1.27 56 1010.2
20260506140034 63 177 3.5 5.2 0.00 0.00 1.27 56 1010.2
20260506135810 64 160 2.6 4.3 0.00 0.00 1.27 56 1010.2
20260506135610 64 188 3.5 6.1 0.00 0.00 1.27 56 1010.2
20260506135410 64 150 1.7 5.2 0.00 0.00 1.27 57 1009.8
20260506135210 63 156 4.3 6.1 0.00 0.00 1.27 59 1010.2
20260506135016 63 159 2.6 5.2 0.00 0.00 1.27 58 1009.8
20260506134810 63 180 4.3 6.1 0.00 0.00 1.27 58 1009.8
20260506134610 63 185 5.2 7.0 0.00 0.00 1.27 60 1009.8
20260506134410 63 159 3.5 6.1 0.00 0.00 1.27 58 1010.2
20260506134210 63 173 2.6 6.1 0.00 0.00 1.27 57 1009.8
20260506134017 63 178 3.5 6.1 0.00 0.00 1.27 59 1010.2
20260506133810 63 176 4.3 7.0 0.00 0.00 1.27 57 1010.2
20260506133610 63 166 5.2 7.8 0.00 0.00 1.27 58 1010.2
20260506133410 64 172 3.5 6.1 0.00 0.00 1.27 58 1010.2
20260506133210 64 200 5.2 7.8 0.00 0.00 1.27 57 1009.8